ARTEMIS (EGNOS/PRN 124)

Last updated on Nov. 18, 2017, 12:19 a.m. UTC

1 26863U 01029A   17320.84505207 -.00000054  00000-0  00000+0 0  9990
2 26863  12.8634  31.4780 0006155 121.9541 295.8309  0.99288158 60972
UTC
Height (km)
Latitude
Longitude
Inclination
Orbital Period
UTC large
Height (km)
Speed (km/s)
/
Latitude / Longitude
Inclination (degrees)
Orbital Period (minutes)
Azimuth
Elevation
Range (km)
Doppler Factor
iOS Compass Heading
iOS Angle

Next 30 passes for location: Hong Kong

Rise time Rise Azimuth (degrees) Set time Set Azimuth (degrees) Duration Max altitude (degrees)

No matching passes for this satellites